TAMPERE/PIRKKALA current weather conditions

sailwx.info

Wind from 250 at 11 knots

Air temperature 2.0° C
Visibility: greater than 5.4 NM
Dewpoint 1.0° C
Present weather: Light rain.

Last reported at 2020-Jan-26 06:50 UTC.
Time now 2020-Jan-26 07:53 UTC

Location: N 61°25' E 023°35'.
View on Google Maps.

See reports from other nearby stations

  
Tides and Currents Weather Stations Pressure Air Temp Water Temp Dewpoint Dewpoint Depression Visibility Wind Speed Wind Dir Waves Ship Positions
date/time (UTC)wind fromknots sea level pressurealtimeterstation pressurevisibilityair tempwater tempwave heightnotes
2020-Jan-26 06:50 250 11 5.4 2.0 Light rain.
2020-Jan-26 06:20 240 12 5.4 2.0
2020-Jan-26 05:50 260 13 5.4 2.0
2020-Jan-26 05:20 230 12 5.4 2.0 Light rain showers.
2020-Jan-26 04:50 240 12 5.4 2.0
2020-Jan-26 04:20 230 12 5.4 2.0
2020-Jan-26 03:50 220 11 5.4 1.0
2020-Jan-26 03:20 220 9 5.4 1.0
2020-Jan-26 02:50 210 8 5.4 1.0
2020-Jan-26 02:20 210 8 5.4 1.0
2020-Jan-26 01:50 200 6 5.4-0.0
2020-Jan-26 01:20 190 7 5.4-0.0
2020-Jan-26 00:50 180 8 5.4-0.0
2020-Jan-26 00:20 180 6 5.4-0.0
2020-Jan-25 23:50 180 6 5.4-1.0
2020-Jan-25 23:20 190 6 5.4-1.0
2020-Jan-25 22:50 200 6 5.4-1.0
2020-Jan-25 22:20 220 6 5.4-1.0
2020-Jan-25 21:50 220 5 5.4-2.0
2020-Jan-25 21:20 230 6 5.4-2.0
2020-Jan-25 20:50 230 6 5.4-3.0
2020-Jan-25 20:20 230 7 5.4-3.0
2020-Jan-25 19:50 230 7 5.4-3.0
2020-Jan-25 19:20 260 6 5.4-3.0
2020-Jan-25 18:50 260 6 5.4-3.0
2020-Jan-25 18:20 260 7 5.4-2.0
2020-Jan-25 17:50 260 6 5.4-2.0
2020-Jan-25 17:20 270 6 5.4-2.0
2020-Jan-25 16:50 270 6 5.4-2.0
2020-Jan-25 16:20 260 6 5.4-2.0
2020-Jan-25 15:50 270 6 5.4-1.0
2020-Jan-25 15:20 270 6 5.4-1.0
2020-Jan-25 14:50 280 8 5.4-1.0
2020-Jan-25 14:20 280 8 5.4-0.0
2020-Jan-25 13:50 280 7 5.4-0.0
2020-Jan-25 13:20 290 11 5.4-0.0
2020-Jan-25 12:50 280 9 gusting 20 5.4 1.0
2020-Jan-25 12:20 290 11 gusting 20 5.4 1.0
2020-Jan-25 11:50 290 12 5.4 1.0
2020-Jan-25 11:20 290 14 gusting 25 5.4 1.0
2020-Jan-25 10:50 290 14 5.4 1.0
2020-Jan-25 10:20 290 12 5.4 1.0
2020-Jan-25 09:50 290 13 5.4 1.0
2020-Jan-25 09:20 280 14 5.4 1.0
2020-Jan-25 08:50 280 13 5.4-0.0
2020-Jan-25 08:20 280 12 5.4-0.0
2020-Jan-25 07:50 270 9 5.4-0.0
2020-Jan-25 07:20 270 11 5.4-0.0
2020-Jan-25 06:50 270 11 5.4-0.0
2020-Jan-25 06:20 270 11 5.4-1.0
2020-Jan-25 05:50 280 8 5.4-0.0
2020-Jan-25 05:20 280 12 5.4-0.0
2020-Jan-25 04:50 270 12 5.4-0.0
2020-Jan-25 04:20 280 13 gusting 25 5.4 1.0
2020-Jan-25 03:50 270 15 gusting 26 5.4-0.0 Light rain showers.
2020-Jan-25 03:20 270 14 5.4-0.0
2020-Jan-25 02:50 270 13 gusting 22 5.4-0.0
2020-Jan-25 02:20 280 14 gusting 28 5.4 1.0
2020-Jan-25 01:50 270 13 5.4-0.0
2020-Jan-25 01:20 280 13 5.4-0.0
2020-Jan-25 00:50 280 13 5.4 1.0
2020-Jan-25 00:20 280 13 5.4 1.0
2020-Jan-24 23:50 280 12 5.4 1.0
2020-Jan-24 23:20 280 11 5.4 1.0
2020-Jan-24 22:50 260 8 5.4 1.0
2020-Jan-24 22:20 270 8 5.4 1.0
2020-Jan-24 21:50 250 13 5.4 1.0
2020-Jan-24 21:20 260 12 5.4 1.0
2020-Jan-24 20:50 260 11 5.4 1.0
2020-Jan-24 20:20 250 12 5.4-0.0
2020-Jan-24 19:50 240 9 5.4-1.0
2020-Jan-24 19:20 220 8 5.4-1.0
2020-Jan-24 18:50 230 9 5.4-1.0
2020-Jan-24 18:20 230 7 5.4-1.0
2020-Jan-24 17:50 230 6 5.4-2.0
2020-Jan-24 17:20 240 9 5.4-1.0
2020-Jan-24 16:50 240 7 5.4-1.0
2020-Jan-24 16:20 230 5 5.4-1.0
2020-Jan-24 15:50 220 6 5.4-0.0
2020-Jan-24 15:20 230 6 5.4-0.0
2020-Jan-24 14:50 230 6 5.4-1.0
2020-Jan-24 14:20 240 6 5.4-0.0
2020-Jan-24 13:50 250 6 5.4 1.0
2020-Jan-24 13:20 280 4 5.4 2.0
2020-Jan-24 12:50 300 8 5.4 3.0
2020-Jan-24 12:20 270 8 5.4 3.0
2020-Jan-24 11:50 240 6 5.4 2.0
2020-Jan-24 11:20 250 6 5.4 2.0
2020-Jan-24 10:50 250 6 5.4 2.0
2020-Jan-24 10:20 240 9 5.4 2.0
2020-Jan-24 09:50 260 6 5.4 2.0
2020-Jan-24 09:20 240 6 5.4 1.0
2020-Jan-24 08:50 260 6 5.4 1.0
2020-Jan-24 08:20 260 7 5.4 1.0
2020-Jan-24 07:50 260 7 5.4 1.0
2020-Jan-24 07:20 250 8 5.4-0.0